Edenton, NC

8:22 PM EST on February 05, 2016 (GMT -0500)
Northeastern Regional

Weather History for KEDE - November, 2013

Change the Weather History Date:

Tuesday, November 19, 2013

  Actual Average Record
Temperature  
Mean Temperature 46 °F -  
Max Temperature 54 °F 65 °F 79 °F (1985)
Min Temperature 37 °F 42 °F 21 °F (2014)
Degree Days  
Heating Degree Days 19    
Moisture  
Dew Point 33 °F    
Average Humidity 59    
Maximum Humidity 83    
Minimum Humidity 40    
Precipitation  
Precipitation 0.25 in - - ()
Sea Level Pressure  
Sea Level Pressure 30.12 in    
Wind  
Wind Speed 6 mph (North)    
Max Wind Speed 15 mph    
Max Gust Speed 21 mph    
Visibility 10 miles    
Events      
Averages and records for this station are not official NWS values.
T = Trace of Precipitation, MM = Missing Value Source: NWS Daily Summary

Daily Weather History Graph

Daily Weather History Graph

Search for Another Location

Airport or City:

Trip Planner

Search our weather history database for the weather conditions in past years. The results will help you decide how hot, cold, wet, or windy it might be!

Date:

Astronomy

Nov. 19, 2013 Rise Set
Actual Time 6:47 AM EST 4:56 PM EST
Civil Twilight 6:19 AM EST 5:23 PM EST
Nautical Twilight 5:48 AM EST 5:54 PM EST
Astronomical Twilight 5:17 AM EST 6:25 PM EST
Moon 6:46 PM EST (11/19) 8:23 AM EST (11/19)
Length of Visible Light 11h 04m
Length of Day
10h 09m
Waning Gibbous, 96% of the Moon is Illuminated
Nov 19
Waning Gibbous
Nov 25
Last Quarter
Dec 2
New
Dec 9
First Quarter
Dec 17
Full

Hourly Weather History & Observations

Time (EST) Temp. Windchill Dew Point Humidity Pressure Visibility Wind Dir Wind Speed Gust Speed Precip Events Conditions
12:15 AM 53.4 °F - 34.9 °F 49% 29.91 in - NNW 9.2 mph - 0.25 in   Unknown
12:35 AM 53.6 °F - 33.6 °F 47% 29.91 in - NNW 8.1 mph - 0.25 in   Unknown
12:55 AM 52.9 °F - 32.9 °F 47% 29.92 in - NNW 5.8 mph - 0.25 in   Unknown
1:15 AM 51.3 °F - 33.3 °F 50% 29.92 in 10.0 mi NNW 4.6 mph - N/A   Unknown
1:35 AM 50.2 °F - 33.6 °F 53% 29.92 in 10.0 mi NNW 4.6 mph - N/A   Unknown
1:55 AM 50.0 °F - 33.1 °F 52% 29.94 in 10.0 mi NNW 3.5 mph - N/A   Unknown
2:15 AM 49.1 °F - 33.8 °F 56% 29.94 in 10.0 mi NNW 4.6 mph - N/A   Unknown
2:35 AM 47.7 °F - 34.7 °F 61% 29.94 in 10.0 mi NNW 3.5 mph - N/A   Unknown
2:55 AM 47.7 °F - 34.2 °F 60% 29.95 in 10.0 mi NNW 4.6 mph - N/A   Unknown
3:15 AM 46.4 °F 44.3 °F 33.3 °F 60% 29.95 in 10.0 mi NNW 4.6 mph - N/A   Unknown
3:35 AM 47.1 °F - 33.1 °F 58% 29.96 in 10.0 mi NNW 3.5 mph - N/A   Unknown
3:55 AM 46.6 °F - 32.9 °F 59% 29.97 in 10.0 mi North 4.6 mph - N/A   Unknown
4:15 AM 46.4 °F 45.2 °F 33.6 °F 61% 29.98 in 10.0 mi NNW 3.5 mph - N/A   Unknown
4:35 AM 45.5 °F 43.2 °F 33.8 °F 64% 29.98 in 10.0 mi North 4.6 mph - N/A   Unknown
4:55 AM 45.1 °F 43.7 °F 32.4 °F 61% 30.00 in 10.0 mi NNE 3.5 mph - N/A   Unknown
5:15 AM 45.0 °F 43.5 °F 32.4 °F 61% 30.01 in 10.0 mi North 3.5 mph - N/A   Unknown
5:35 AM 43.7 °F 42.1 °F 33.4 °F 67% 30.01 in 10.0 mi North 3.5 mph - N/A   Unknown
5:55 AM 43.7 °F 42.1 °F 32.9 °F 66% 30.02 in 10.0 mi North 3.5 mph - N/A   Unknown
6:15 AM 42.1 °F 39.2 °F 32.2 °F 68% 30.04 in 10.0 mi North 4.6 mph - N/A   Unknown
6:35 AM 41.9 °F 37.5 °F 32.0 °F 68% 30.05 in 10.0 mi North 6.9 mph - N/A   Unknown
6:55 AM 42.1 °F - 32.0 °F 67% 30.07 in 10.0 mi Calm Calm - N/A   Unknown
7:15 AM 41.5 °F 38.6 °F 32.0 °F 69% 30.07 in 10.0 mi North 4.6 mph - N/A   Unknown
7:35 AM 43.5 °F 40.1 °F 32.5 °F 65% 30.08 in 10.0 mi North 5.8 mph - N/A   Unknown
7:55 AM 45.1 °F 42.8 °F 33.1 °F 63% 30.09 in 10.0 mi North 4.6 mph - N/A   Unknown
8:15 AM 46.4 °F 42.4 °F 33.8 °F 62% 30.10 in 10.0 mi North 8.1 mph - N/A   Unknown
8:35 AM 47.3 °F - 33.1 °F 58% 30.11 in 10.0 mi North 8.1 mph - N/A   Unknown
8:55 AM 48.6 °F - 33.8 °F 57% 30.12 in 10.0 mi North 9.2 mph - N/A   Unknown
9:15 AM 49.8 °F - 33.8 °F 54% 30.12 in 10.0 mi North 10.4 mph - N/A   Unknown
9:35 AM 51.1 °F - 33.1 °F 50% 30.13 in 10.0 mi NNE 13.8 mph 17.3 mph N/A   Unknown
9:55 AM 51.6 °F - 32.4 °F 48% 30.12 in 10.0 mi NNE 9.2 mph 18.4 mph N/A   Unknown
10:15 AM 52.5 °F - 32.4 °F 46% 30.13 in 10.0 mi North 12.7 mph 20.7 mph N/A   Unknown
10:35 AM 53.1 °F - 32.0 °F 45% 30.13 in 10.0 mi North 10.4 mph - N/A   Unknown
10:55 AM 54.5 °F - 32.0 °F 42% 30.13 in 10.0 mi North 11.5 mph - N/A   Unknown
11:15 AM 53.8 °F - 31.6 °F 43% 30.13 in 10.0 mi North 9.2 mph 19.6 mph N/A   Unknown
11:35 AM 54.5 °F - 31.8 °F 42% 30.12 in 10.0 mi NNE 8.1 mph 18.4 mph N/A   Unknown
11:55 AM 54.3 °F - 32.0 °F 43% 30.12 in 10.0 mi North 11.5 mph 18.4 mph N/A   Unknown
12:15 PM 54.5 °F - 31.6 °F 42% 30.13 in 10.0 mi NNE 12.7 mph - N/A   Unknown
12:35 PM 54.1 °F - 31.8 °F 43% 30.13 in 10.0 mi North 11.5 mph - N/A   Unknown
12:55 PM 54.0 °F - 30.7 °F 41% 30.13 in 10.0 mi North 8.1 mph 11.5 mph N/A   Unknown
1:15 PM 54.5 °F - 30.6 °F 40% 30.13 in 10.0 mi North 15.0 mph 18.4 mph N/A   Unknown
1:35 PM 54.3 °F - 30.7 °F 41% 30.13 in 10.0 mi NNE 11.5 mph - N/A   Unknown
1:55 PM 53.8 °F - 30.6 °F 41% 30.13 in 10.0 mi NNW 8.1 mph 17.3 mph N/A   Unknown
2:15 PM 52.7 °F - 31.3 °F 44% 30.13 in 10.0 mi NNE 5.8 mph - N/A   Unknown
2:35 PM 53.1 °F - 31.3 °F 43% 30.13 in 10.0 mi North 8.1 mph - N/A   Unknown
2:55 PM 53.8 °F - 31.3 °F 42% 30.13 in 10.0 mi North 11.5 mph - N/A   Unknown
3:15 PM 52.7 °F - 31.8 °F 45% 30.14 in 10.0 mi North 9.2 mph - N/A   Unknown
3:35 PM 53.4 °F - 32.0 °F 44% 30.15 in 10.0 mi North 8.1 mph - N/A   Unknown
3:55 PM 52.0 °F - 31.6 °F 46% 30.16 in 10.0 mi North 8.1 mph - N/A   Unknown
4:15 PM 51.1 °F - 32.0 °F 48% 30.16 in 10.0 mi NNE 6.9 mph - N/A   Unknown
4:35 PM 50.0 °F - 32.9 °F 52% 30.17 in 10.0 mi NNE 3.5 mph - N/A   Unknown
4:55 PM 48.9 °F - 32.7 °F 54% 30.17 in 10.0 mi North 5.8 mph - N/A   Unknown
5:15 PM 47.5 °F - 33.1 °F 57% 30.18 in 10.0 mi North 3.5 mph - N/A   Unknown
5:35 PM 46.6 °F - 33.6 °F 61% 30.19 in 10.0 mi NNE 4.6 mph - N/A   Unknown
5:55 PM 45.5 °F 43.2 °F 33.8 °F 64% 30.20 in 10.0 mi NNE 4.6 mph - N/A   Unknown
6:15 PM 44.8 °F 43.3 °F 34.3 °F 67% 30.22 in 10.0 mi NE 3.5 mph - N/A   Unknown
6:35 PM 44.6 °F 43.1 °F 34.7 °F 68% 30.23 in 10.0 mi NE 3.5 mph - N/A   Unknown
6:55 PM 43.7 °F 42.1 °F 35.1 °F 72% 30.24 in 10.0 mi NE 3.5 mph - N/A   Unknown
7:15 PM 43.2 °F 41.5 °F 34.9 °F 73% 30.25 in 10.0 mi NE 3.5 mph - N/A   Unknown
7:35 PM 43.2 °F - 34.9 °F 73% 30.25 in 10.0 mi Calm Calm - N/A   Unknown
7:55 PM 43.2 °F - 34.7 °F 72% 30.26 in 10.0 mi Calm Calm - N/A   Unknown
8:15 PM 41.4 °F - 34.9 °F 78% 30.26 in 10.0 mi Calm Calm - N/A   Unknown
8:35 PM 40.1 °F - 34.9 °F 82% 30.28 in 10.0 mi Calm Calm - N/A   Unknown
8:55 PM 41.0 °F 38.0 °F 34.5 °F 78% 30.28 in 10.0 mi NE 4.6 mph - N/A   Unknown
9:15 PM 41.2 °F 38.2 °F 34.3 °F 77% 30.28 in 10.0 mi NNE 4.6 mph - N/A   Unknown
9:35 PM 41.0 °F 39.0 °F 34.0 °F 76% 30.28 in 10.0 mi NE 3.5 mph - N/A   Unknown
9:55 PM 41.0 °F 38.0 °F 34.0 °F 76% 30.28 in 10.0 mi NE 4.6 mph - N/A   Unknown
10:15 PM 40.6 °F 36.7 °F 33.6 °F 76% 30.29 in 10.0 mi North 5.8 mph - N/A   Unknown
10:35 PM 39.0 °F 36.8 °F 33.1 °F 79% 30.30 in 10.0 mi North 3.5 mph - N/A   Unknown
10:55 PM 39.6 °F 36.3 °F 33.1 °F 78% 30.29 in 10.0 mi NNE 4.6 mph - N/A   Unknown
11:15 PM 39.2 °F 35.9 °F 32.9 °F 78% 30.30 in 10.0 mi NNE 4.6 mph - N/A   Unknown
11:35 PM 38.8 °F 35.4 °F 32.5 °F 78% 30.31 in 10.0 mi North 4.6 mph - N/A   Unknown
11:55 PM 37.0 °F 32.4 °F 32.2 °F 83% 30.31 in 10.0 mi North 5.8 mph - N/A   Unknown